Showing default

O3B FM14, 43233

Orbit data source: Space-Track

O3B FM14, 43233 is a payload satellite owned by O3B SES (JE) that was launched on Fri, 09 Mar 2018 UTC via a SOYUZ-ST-B launch vehicle from the French Guiana (FRGUI). Payload-class satellites include a variety of spacecraft equipped with specific instruments for various scientific and technological missions. These include communications satellites like Starlink; space stations such as the ISS; scientific satellites like the Hubble; Earth observation satellites from companies like Planet Labs, Umbra, and HawkEye 360; GPS; miniature CubeSats for education and research; and military/defense satellites.

Loading next visibility...
Identifier
43233, 2018-024C
Orbit
Active
Country
Flag of UnknownUnknown / O3B
Related business
Manufacturer
Thales Alenia
Mission
Operational Commercial Communications
Bus & Motor
PRISMA?, LS-400 AOCS?
Mass
700 kg wet, ~500 kg dry
Launch date (UTC)
2018-03-09 (8 years ago)
Launch vehicle
SOYUZ-ST-B
Launch site
French Guiana (FRGUI)
Object type
Payload
Rocket body
Debris
Shape & HBR
Trap Box + 2 Pan, 6.0 m
Radar Cross Section
21.980 m², Large (>1 m²)

Expand to show TLE details & history
Last TLE update: 14 hours ago

TLE from 14 hours ago
0 O3B FM14
1 43233U 18024C   25295.71595044 -.00000022  00000-0  00000+0 0  9992
2 43233   0.0464 350.0634 0002779 221.9276 147.9987  5.00115471139075
Epoch: 2025-10-22T17:10Z
TLE epoch observation values (Epoch: 2025-10-22T17:10:58.118Z)
Latitude
0.01247°
Longitude
70.8722°
Altitude
8,067.778 km
Speed
5.253 km/s
True Right ascension
23h 59m 59s
True Declination
0° 00' 45"
Sunlit
Object was in daylight at epoch
Visualization orbit readout
Latitude
Unknown
Longitude
Unknown
Altitude
Unknown
Speed
Unknown
Apparent Right ascension
Unknown
Apparent Declination
Unknown
Sunlit
N/A
Visualization observer readout
Local Sidereal Time
02:19:26
Azimuth
Unknown
Elevation
Unknown
Doppler factor
Unknown
Orbital elements
Apogee altitude
8,072.964 km
Perigee altitude
8,064.934 km
Semi-major axis
14,447.086 km
Eccentricity
0.00028
Inclination
0.0464°
RAAN
350.0634°
Arg. of periapsis
221.9276°
True anomaly
148.01557°
Mean anomaly
147.9987°
Eccentric anomaly
148.00714°
Mean motion
1.24989 °/min
Orbital period
288.02 mins
BSTAR
0
Loading maneuver chart data...
Computing Atmospheric mass density...
Loading historical data...
Loading historical data...
Loading historical data...
Loading historical data...
Loading historical data...
Loading historical data...
Loading historical data...
Other satellites on launch #24 in the year 2018 (2018-03-09 UTC)

Documentation

Showing up to 5 results
|